Time,TemperatureF,DewpointF,PressureIn,WindDirection,WindDirectionDegrees,WindSpeedMPH,WindSpeedGustMPH,Humidity,HourlyPrecipIn,Conditions,Clouds,dailyrainin,SoftwareType,DateUTC
2013-06-23 00:00:00,64.7,63.2,30.17,SW,218,0.0,0.0,95,0.00,,,0.00,Wunderground v.1.15,2013-06-23 04:00:00,
2013-06-23 00:01:00,64.7,63.2,30.17,SSW,213,0.0,2.0,95,0.00,,,0.00,Wunderground v.1.15,2013-06-23 04:01:00,
2013-06-23 00:02:00,64.7,63.2,30.17,SW,225,0.0,4.0,95,0.00,,,0.00,Wunderground v.1.15,2013-06-23 04:02:00,
2013-06-23 00:03:00,64.7,63.2,30.17,SW,225,0.0,4.0,95,0.00,,,0.00,Wunderground v.1.15,2013-06-23 04:03:00,
2013-06-23 00:04:00,64.7,63.2,30.17,SW,225,0.0,4.0,95,0.00,,,0.00,Wunderground v.1.15,2013-06-23 04:04:00,
2013-06-23 00:05:00,64.7,63.2,30.18,SW,225,0.0,4.0,95,0.00,,,0.00,Wunderground v.1.15,2013-06-23 04:05:00,
2013-06-23 00:10:00,64.8,63.3,30.18,WSW,242,0.0,4.0,95,0.00,,,0.00,Wunderground v.1.15,2013-06-23 04:10:00,
2013-06-23 00:15:00,64.7,63.2,30.18,SW,214,0.0,4.0,95,0.00,,,0.00,Wunderground v.1.15,2013-06-23 04:15:00,
2013-06-23 00:21:00,64.7,63.2,30.18,WSW,242,0.0,4.0,95,0.00,,,0.00,Wunderground v.1.15,2013-06-23 04:21:00,
2013-06-23 00:26:00,64.5,63.0,30.18,SW,221,0.0,4.0,95,0.00,,,0.00,Wunderground v.1.15,2013-06-23 04:26:00,
2013-06-23 00:32:00,64.5,63.0,30.17,SW,219,0.0,4.0,95,0.00,,,0.00,Wunderground v.1.15,2013-06-23 04:32:00,
2013-06-23 00:37:00,64.2,62.7,30.18,SW,219,0.0,4.0,95,0.00,,,0.00,Wunderground v.1.15,2013-06-23 04:37:00,
2013-06-23 00:42:00,64.0,62.5,30.18,SW,219,0.0,4.0,95,0.00,,,0.00,Wunderground v.1.15,2013-06-23 04:42:00,
2013-06-23 00:48:00,63.9,62.4,30.17,SW,219,0.0,4.0,95,0.00,,,0.00,Wunderground v.1.15,2013-06-23 04:48:00,
2013-06-23 00:53:00,63.7,62.2,30.17,SW,219,0.0,4.0,95,0.00,,,0.00,Wunderground v.1.15,2013-06-23 04:53:00,
2013-06-23 00:58:00,63.5,62.0,30.17,SW,219,0.0,4.0,95,0.00,,,0.00,Wunderground v.1.15,2013-06-23 04:58:00,
2013-06-23 01:04:00,63.3,61.8,30.17,SW,219,0.0,4.0,95,0.00,,,0.00,Wunderground v.1.15,2013-06-23 05:04:00,
2013-06-23 01:10:00,63.2,61.7,30.17,SW,219,0.0,4.0,95,0.00,,,0.00,Wunderground v.1.15,2013-06-23 05:10:00,
2013-06-23 01:16:00,63.0,61.5,30.17,SW,219,0.0,4.0,95,0.00,,,0.00,Wunderground v.1.15,2013-06-23 05:16:00,
2013-06-23 01:22:00,62.9,61.7,30.17,SW,219,0.0,4.0,96,0.00,,,0.00,Wunderground v.1.15,2013-06-23 05:22:00,
2013-06-23 01:28:00,62.8,61.6,30.17,SW,219,0.0,4.0,96,0.00,,,0.00,Wunderground v.1.15,2013-06-23 05:28:00,
2013-06-23 01:34:00,62.7,61.5,30.17,SW,219,0.0,4.0,96,0.00,,,0.00,Wunderground v.1.15,2013-06-23 05:34:00,
2013-06-23 01:39:00,62.6,61.4,30.17,SW,219,0.0,4.0,96,0.00,,,0.00,Wunderground v.1.15,2013-06-23 05:39:00,
2013-06-23 01:45:00,62.4,61.2,30.17,SW,219,0.0,4.0,96,0.00,,,0.00,Wunderground v.1.15,2013-06-23 05:45:00,
2013-06-23 01:50:00,62.4,61.2,30.17,SW,219,0.0,4.0,96,0.00,,,0.00,Wunderground v.1.15,2013-06-23 05:50:00,
2013-06-23 01:56:00,62.2,61.0,30.17,SW,219,0.0,4.0,96,0.00,,,0.00,Wunderground v.1.15,2013-06-23 05:56:00,
2013-06-23 02:02:00,62.1,60.9,30.16,SW,219,0.0,4.0,96,0.00,,,0.00,Wunderground v.1.15,2013-06-23 06:02:00,
2013-06-23 02:05:00,62.0,60.8,30.16,SW,219,0.0,4.0,96,0.00,,,0.00,Wunderground v.1.15,2013-06-23 06:05:00,
2013-06-23 02:11:00,61.9,60.7,30.16,SW,219,0.0,4.0,96,0.00,,,0.00,Wunderground v.1.15,2013-06-23 06:11:00,
2013-06-23 02:16:00,61.8,60.6,30.16,NNE,19,0.0,4.0,96,0.00,,,0.00,Wunderground v.1.15,2013-06-23 06:16:00,
2013-06-23 02:21:00,61.7,60.5,30.16,NNE,18,0.0,4.0,96,0.00,,,0.00,Wunderground v.1.15,2013-06-23 06:21:00,
2013-06-23 02:27:00,61.6,60.4,30.16,NNE,18,0.0,4.0,96,0.00,,,0.00,Wunderground v.1.15,2013-06-23 06:27:00,
2013-06-23 02:32:00,61.4,60.2,30.16,NNE,19,0.0,4.0,96,0.00,,,0.00,Wunderground v.1.15,2013-06-23 06:32:00,
2013-06-23 02:38:00,61.3,60.2,30.16,NNE,19,0.0,4.0,96,0.00,,,0.00,Wunderground v.1.15,2013-06-23 06:38:00,
2013-06-23 02:44:00,61.1,60.0,30.15,NNE,19,0.0,4.0,96,0.00,,,0.00,Wunderground v.1.15,2013-06-23 06:44:00,
2013-06-23 02:49:00,61.0,59.9,30.15,NNE,19,0.0,4.0,96,0.00,,,0.00,Wunderground v.1.15,2013-06-23 06:49:00,
2013-06-23 02:54:00,61.0,60.1,30.15,NNE,19,0.0,4.0,97,0.00,,,0.00,Wunderground v.1.15,2013-06-23 06:54:00,
2013-06-23 03:00:00,60.9,60.0,30.15,NNE,18,0.0,4.0,97,0.00,,,0.00,Wunderground v.1.15,2013-06-23 07:00:00,
2013-06-23 03:06:00,61.0,60.1,30.15,NNE,19,0.0,4.0,97,0.00,,,0.00,Wunderground v.1.15,2013-06-23 07:06:00,
2013-06-23 03:11:00,61.0,60.1,30.15,NNE,19,0.0,4.0,97,0.00,,,0.00,Wunderground v.1.15,2013-06-23 07:11:00,
2013-06-23 03:16:00,61.0,60.1,30.14,NNE,19,0.0,4.0,97,0.00,,,0.00,Wunderground v.1.15,2013-06-23 07:16:00,
2013-06-23 03:21:00,61.0,60.1,30.14,NNE,18,0.0,4.0,97,0.00,,,0.00,Wunderground v.1.15,2013-06-23 07:21:00,
2013-06-23 03:26:00,61.0,60.1,30.14,NNE,19,0.0,4.0,97,0.00,,,0.00,Wunderground v.1.15,2013-06-23 07:26:00,
2013-06-23 03:32:00,60.8,59.9,30.14,NNE,18,0.0,4.0,97,0.00,,,0.00,Wunderground v.1.15,2013-06-23 07:32:00,
2013-06-23 03:37:00,60.9,60.0,30.14,NNE,18,0.0,4.0,97,0.00,,,0.00,Wunderground v.1.15,2013-06-23 07:37:00,
2013-06-23 03:42:00,60.9,60.0,30.14,NNE,19,0.0,4.0,97,0.00,,,0.00,Wunderground v.1.15,2013-06-23 07:42:00,
2013-06-23 03:48:00,60.8,59.9,30.14,NNE,19,0.0,4.0,97,0.00,,,0.00,Wunderground v.1.15,2013-06-23 07:48:00,
2013-06-23 03:53:00,60.8,59.9,30.14,NNE,19,0.0,4.0,97,0.00,,,0.00,Wunderground v.1.15,2013-06-23 07:53:00,
2013-06-23 03:59:00,60.7,59.8,30.14,NNE,18,0.0,4.0,97,0.00,,,0.00,Wunderground v.1.15,2013-06-23 07:59:00,
2013-06-23 04:04:00,60.7,59.8,30.14,NNE,19,0.0,4.0,97,0.00,,,0.00,Wunderground v.1.15,2013-06-23 08:04:00,
2013-06-23 04:10:00,60.6,59.7,30.14,NNE,19,0.0,4.0,97,0.00,,,0.00,Wunderground v.1.15,2013-06-23 08:10:00,
2013-06-23 04:16:00,60.5,59.6,30.14,NNE,18,0.0,4.0,97,0.00,,,0.00,Wunderground v.1.15,2013-06-23 08:16:00,
2013-06-23 04:21:00,60.3,59.4,30.14,NNE,18,0.0,4.0,97,0.00,,,0.00,Wunderground v.1.15,2013-06-23 08:21:00,
2013-06-23 04:27:00,60.5,59.6,30.14,NNE,18,0.0,4.0,97,0.00,,,0.00,Wunderground v.1.15,2013-06-23 08:27:00,
2013-06-23 04:32:00,60.4,59.5,30.14,NNE,19,0.0,4.0,97,0.00,,,0.00,Wunderground v.1.15,2013-06-23 08:32:00,
2013-06-23 04:38:00,60.5,59.6,30.14,NNE,19,0.0,4.0,97,0.00,,,0.00,Wunderground v.1.15,2013-06-23 08:38:00,
2013-06-23 04:43:00,60.4,59.5,30.14,NNE,18,0.0,4.0,97,0.00,,,0.00,Wunderground v.1.15,2013-06-23 08:43:00,
2013-06-23 04:48:00,60.6,59.7,30.14,NNE,19,0.0,4.0,97,0.00,,,0.00,Wunderground v.1.15,2013-06-23 08:48:00,
2013-06-23 04:54:00,60.7,59.8,30.14,NNE,18,0.0,4.0,97,0.00,,,0.00,Wunderground v.1.15,2013-06-23 08:54:00,
2013-06-23 05:00:00,60.8,59.9,30.14,NNE,19,0.0,4.0,97,0.00,,,0.00,Wunderground v.1.15,2013-06-23 09:00:00,
2013-06-23 05:05:00,61.0,60.1,30.14,NNE,19,0.0,4.0,97,0.00,,,0.00,Wunderground v.1.15,2013-06-23 09:05:00,
2013-06-23 05:11:00,61.4,60.5,30.14,NNE,19,0.0,4.0,97,0.00,,,0.00,Wunderground v.1.15,2013-06-23 09:11:00,
2013-06-23 05:16:00,61.6,61.0,30.14,NNE,19,0.0,4.0,98,0.00,,,0.00,Wunderground v.1.15,2013-06-23 09:16:00,
2013-06-23 05:21:00,61.5,60.6,30.14,NNE,19,0.0,4.0,97,0.00,,,0.00,Wunderground v.1.15,2013-06-23 09:21:00,
2013-06-23 05:27:00,61.5,60.6,30.14,NNE,18,0.0,4.0,97,0.00,,,0.00,Wunderground v.1.15,2013-06-23 09:27:00,
2013-06-23 05:33:00,61.5,60.6,30.14,NNE,19,0.0,4.0,97,0.00,,,0.00,Wunderground v.1.15,2013-06-23 09:33:00,
2013-06-23 05:39:00,61.5,60.6,30.14,NNE,19,0.0,4.0,97,0.00,,,0.00,Wunderground v.1.15,2013-06-23 09:39:00,
2013-06-23 05:45:00,61.5,60.6,30.15,NNE,18,0.0,4.0,97,0.00,,,0.00,Wunderground v.1.15,2013-06-23 09:45:00,
2013-06-23 05:50:00,61.8,60.9,30.14,NNE,18,0.0,4.0,97,0.00,,,0.00,Wunderground v.1.15,2013-06-23 09:50:00,
2013-06-23 05:55:00,61.8,60.9,30.15,NNE,18,0.0,4.0,97,0.00,,,0.00,Wunderground v.1.15,2013-06-23 09:55:00,
2013-06-23 06:00:00,61.9,61.0,30.15,NNE,19,0.0,4.0,97,0.00,,,0.00,Wunderground v.1.15,2013-06-23 10:00:00,
2013-06-23 06:06:00,62.1,61.2,30.15,NNE,19,0.0,4.0,97,0.00,,,0.00,Wunderground v.1.15,2013-06-23 10:06:00,
2013-06-23 06:11:00,62.3,61.4,30.15,NNE,18,0.0,4.0,97,0.00,,,0.00,Wunderground v.1.15,2013-06-23 10:11:00,
2013-06-23 06:17:00,62.8,61.9,30.15,NNE,18,0.0,4.0,97,0.00,,,0.00,Wunderground v.1.15,2013-06-23 10:17:00,
2013-06-23 06:23:00,63.5,62.6,30.15,NNE,19,0.0,4.0,97,0.00,,,0.00,Wunderground v.1.15,2013-06-23 10:23:00,
2013-06-23 06:28:00,63.8,62.9,30.15,NNE,18,0.0,4.0,97,0.00,,,0.00,Wunderground v.1.15,2013-06-23 10:28:00,
2013-06-23 06:33:00,64.5,63.6,30.15,NNE,18,0.0,4.0,97,0.00,,,0.00,Wunderground v.1.15,2013-06-23 10:33:00,
2013-06-23 06:38:00,64.5,63.6,30.16,NNE,18,0.0,4.0,97,0.00,,,0.00,Wunderground v.1.15,2013-06-23 10:38:00,
2013-06-23 06:44:00,64.8,63.9,30.16,NNE,19,0.0,4.0,97,0.00,,,0.00,Wunderground v.1.15,2013-06-23 10:44:00,
2013-06-23 06:49:00,65.4,64.5,30.15,NNE,18,0.0,4.0,97,0.00,,,0.00,Wunderground v.1.15,2013-06-23 10:49:00,
2013-06-23 06:54:00,66.2,65.3,30.16,NNE,19,0.0,4.0,97,0.00,,,0.00,Wunderground v.1.15,2013-06-23 10:54:00,
2013-06-23 07:00:00,66.6,65.4,30.15,SW,229,0.0,4.0,96,0.00,,,0.00,Wunderground v.1.15,2013-06-23 11:00:00,
2013-06-23 07:05:00,66.8,65.6,30.16,SW,224,0.0,4.0,96,0.00,,,0.00,Wunderground v.1.15,2013-06-23 11:05:00,
2013-06-23 07:11:00,67.0,65.5,30.16,SSW,197,1.0,4.0,95,0.00,,,0.00,Wunderground v.1.15,2013-06-23 11:11:00,
2013-06-23 07:16:00,67.2,65.7,30.16,SW,215,1.0,4.0,95,0.00,,,0.00,Wunderground v.1.15,2013-06-23 11:16:00,
2013-06-23 07:21:00,67.4,65.6,30.16,WSW,249,1.0,4.0,94,0.00,,,0.00,Wunderground v.1.15,2013-06-23 11:21:00,
2013-06-23 07:27:00,68.0,66.2,30.16,SSE,159,1.0,4.0,94,0.00,,,0.00,Wunderground v.1.15,2013-06-23 11:27:00,
2013-06-23 07:32:00,68.4,66.0,30.16,WSW,239,1.0,4.0,92,0.00,,,0.00,Wunderground v.1.15,2013-06-23 11:32:00,
2013-06-23 07:37:00,68.7,66.0,30.16,South,173,1.0,4.0,91,0.00,,,0.00,Wunderground v.1.15,2013-06-23 11:37:00,
2013-06-23 07:42:00,69.7,67.0,30.16,SW,233,1.0,4.0,91,0.00,,,0.00,Wunderground v.1.15,2013-06-23 11:42:00,
2013-06-23 07:47:00,70.7,67.3,30.16,SSW,205,0.0,4.0,89,0.00,,,0.00,Wunderground v.1.15,2013-06-23 11:47:00,
2013-06-23 07:52:00,71.5,67.4,30.16,SSW,207,0.0,4.0,87,0.00,,,0.00,Wunderground v.1.15,2013-06-23 11:52:00,
2013-06-23 07:58:00,71.8,66.4,30.16,SW,225,1.0,4.0,83,0.00,,,0.00,Wunderground v.1.15,2013-06-23 11:58:00,
2013-06-23 08:03:00,71.8,66.0,30.16,SSW,211,2.0,4.0,82,0.00,,,0.00,Wunderground v.1.15,2013-06-23 12:03:00,
2013-06-23 08:09:00,72.1,65.9,30.16,South,190,2.0,4.0,81,0.00,,,0.00,Wunderground v.1.15,2013-06-23 12:09:00,
2013-06-23 08:15:00,72.4,66.2,30.16,SSW,197,2.0,4.0,81,0.00,,,0.00,Wunderground v.1.15,2013-06-23 12:15:00,
2013-06-23 08:20:00,72.7,66.2,30.16,SW,233,2.0,2.0,80,0.00,,,0.00,Wunderground v.1.15,2013-06-23 12:20:00,
2013-06-23 08:25:00,73.2,67.4,30.16,West,260,2.0,4.0,82,0.00,,,0.00,Wunderground v.1.15,2013-06-23 12:25:00,
2013-06-23 08:31:00,73.7,67.1,30.16,SSW,203,1.0,4.0,80,0.00,,,0.00,Wunderground v.1.15,2013-06-23 12:31:00,
2013-06-23 08:36:00,74.4,67.5,30.16,SW,232,1.0,4.0,79,0.00,,,0.00,Wunderground v.1.15,2013-06-23 12:36:00,
2013-06-23 08:41:00,74.7,67.8,30.16,SSW,205,1.0,4.0,79,0.00,,,0.00,Wunderground v.1.15,2013-06-23 12:41:00,
2013-06-23 08:46:00,74.9,67.2,30.16,SW,233,2.0,4.0,77,0.00,,,0.00,Wunderground v.1.15,2013-06-23 12:46:00,
2013-06-23 08:51:00,75.0,67.3,30.16,SW,221,2.0,4.0,77,0.00,,,0.00,Wunderground v.1.15,2013-06-23 12:51:00,
2013-06-23 08:57:00,75.4,67.3,30.16,SW,217,3.0,5.0,76,0.00,,,0.00,Wunderground v.1.15,2013-06-23 12:57:00,
2013-06-23 09:02:00,75.7,68.0,30.16,West,269,3.0,4.0,77,0.00,,,0.00,Wunderground v.1.15,2013-06-23 13:02:00,
2013-06-23 09:08:00,76.2,67.7,30.16,SW,235,2.0,5.0,75,0.00,,,0.00,Wunderground v.1.15,2013-06-23 13:08:00,
2013-06-23 09:14:00,76.7,68.9,30.16,SSW,195,2.0,4.0,77,0.00,,,0.00,Wunderground v.1.15,2013-06-23 13:14:00,
2013-06-23 09:20:00,77.2,69.0,30.16,SW,222,2.0,2.0,76,0.00,,,0.00,Wunderground v.1.15,2013-06-23 13:20:00,
2013-06-23 09:25:00,77.5,68.9,30.16,WSW,242,2.0,4.0,75,0.00,,,0.00,Wunderground v.1.15,2013-06-23 13:25:00,
2013-06-23 09:30:00,77.5,68.9,30.15,SSW,211,2.0,4.0,75,0.00,,,0.00,Wunderground v.1.15,2013-06-23 13:30:00,
2013-06-23 09:36:00,77.8,69.6,30.15,SW,229,3.0,4.0,76,0.00,,,0.00,Wunderground v.1.15,2013-06-23 13:36:00,
2013-06-23 09:41:00,78.1,68.7,30.15,SSW,198,3.0,4.0,73,0.00,,,0.00,Wunderground v.1.15,2013-06-23 13:41:00,
2013-06-23 09:47:00,78.5,69.1,30.15,SW,236,3.0,7.0,73,0.00,,,0.00,Wunderground v.1.15,2013-06-23 13:47:00,
2013-06-23 09:52:00,78.7,69.7,30.15,SW,221,3.0,5.0,74,0.00,,,0.00,Wunderground v.1.15,2013-06-23 13:52:00,
2013-06-23 09:57:00,78.8,69.4,30.15,South,184,4.0,5.0,73,0.00,,,0.00,Wunderground v.1.15,2013-06-23 13:57:00,
2013-06-23 10:02:00,78.9,69.9,30.14,SSW,211,4.0,4.0,74,0.00,,,0.00,Wunderground v.1.15,2013-06-23 14:02:00,
2013-06-23 10:08:00,79.3,70.3,30.14,SSW,192,3.0,4.0,74,0.00,,,0.00,Wunderground v.1.15,2013-06-23 14:08:00,
2013-06-23 10:14:00,79.6,70.2,30.14,West,264,3.0,5.0,73,0.00,,,0.00,Wunderground v.1.15,2013-06-23 14:14:00,
2013-06-23 10:20:00,79.8,70.8,30.14,SSW,205,3.0,4.0,74,0.00,,,0.00,Wunderground v.1.15,2013-06-23 14:20:00,
2013-06-23 10:25:00,80.3,69.6,30.14,SSW,193,3.0,6.0,70,0.00,,,0.00,Wunderground v.1.15,2013-06-23 14:25:00,
2013-06-23 10:30:00,80.2,69.9,30.14,SW,232,4.0,5.0,71,0.00,,,0.00,Wunderground v.1.15,2013-06-23 14:30:00,
2013-06-23 10:36:00,80.6,70.7,30.13,SW,226,4.0,8.0,72,0.00,,,0.00,Wunderground v.1.15,2013-06-23 14:36:00,
2013-06-23 10:42:00,80.9,69.8,30.13,SW,235,3.0,4.0,69,0.00,,,0.00,Wunderground v.1.15,2013-06-23 14:42:00,
2013-06-23 10:48:00,81.3,71.4,30.13,WSW,257,2.0,4.0,72,0.00,,,0.00,Wunderground v.1.15,2013-06-23 14:48:00,
2013-06-23 10:54:00,81.2,70.9,30.13,SSW,195,2.0,4.0,71,0.00,,,0.00,Wunderground v.1.15,2013-06-23 14:54:00,
2013-06-23 10:59:00,80.8,70.1,30.13,WSW,238,3.0,4.0,70,0.00,,,0.00,Wunderground v.1.15,2013-06-23 14:59:00,
2013-06-23 11:04:00,80.9,70.2,30.13,SSW,195,3.0,4.0,70,0.00,,,0.00,Wunderground v.1.15,2013-06-23 15:04:00,
2013-06-23 11:09:00,81.6,71.3,30.12,SW,235,3.0,4.0,71,0.00,,,0.00,Wunderground v.1.15,2013-06-23 15:09:00,
2013-06-23 11:14:00,82.3,70.7,30.12,SW,224,4.0,6.0,68,0.00,,,0.00,Wunderground v.1.15,2013-06-23 15:14:00,
2013-06-23 11:20:00,82.5,70.4,30.12,SSW,198,4.0,4.0,67,0.00,,,0.00,Wunderground v.1.15,2013-06-23 15:20:00,
2013-06-23 11:26:00,82.8,70.7,30.12,SSW,210,4.0,4.0,67,0.00,,,0.00,Wunderground v.1.15,2013-06-23 15:26:00,
2013-06-23 11:31:00,83.2,70.2,30.12,South,177,4.0,10.0,65,0.00,,,0.00,Wunderground v.1.15,2013-06-23 15:31:00,
2013-06-23 11:36:00,83.4,70.8,30.12,SSW,201,4.0,10.0,66,0.00,,,0.00,Wunderground v.1.15,2013-06-23 15:36:00,
2013-06-23 11:42:00,83.7,71.1,30.12,WSW,250,3.0,4.0,66,0.00,,,0.00,Wunderground v.1.15,2013-06-23 15:42:00,
2013-06-23 11:48:00,83.6,71.9,30.12,NNW,333,4.0,6.0,68,0.00,,,0.00,Wunderground v.1.15,2013-06-23 15:48:00,
2013-06-23 11:53:00,83.8,71.7,30.12,WSW,238,4.0,5.0,67,0.00,,,0.00,Wunderground v.1.15,2013-06-23 15:53:00,
2013-06-23 11:59:00,84.1,71.5,30.12,SW,228,4.0,9.0,66,0.00,,,0.00,Wunderground v.1.15,2013-06-23 15:59:00,
2013-06-23 12:05:00,84.1,71.1,30.12,SSE,149,5.0,8.0,65,0.00,,,0.00,Wunderground v.1.15,2013-06-23 16:05:00,
2013-06-23 12:10:00,84.2,71.2,30.12,South,186,4.0,4.0,65,0.00,,,0.00,Wunderground v.1.15,2013-06-23 16:10:00,
2013-06-23 12:15:00,84.1,71.1,30.12,South,179,5.0,9.0,65,0.00,,,0.00,Wunderground v.1.15,2013-06-23 16:15:00,
2013-06-23 12:20:00,84.3,70.8,30.11,SW,218,4.0,4.0,64,0.00,,,0.00,Wunderground v.1.15,2013-06-23 16:20:00,
2013-06-23 12:26:00,84.6,70.6,30.11,SSW,210,4.0,8.0,63,0.00,,,0.00,Wunderground v.1.15,2013-06-23 16:26:00,
2013-06-23 12:31:00,84.6,71.1,30.11,WSW,257,5.0,8.0,64,0.00,,,0.00,Wunderground v.1.15,2013-06-23 16:31:00,
2013-06-23 12:36:00,84.8,70.3,30.11,West,280,4.0,8.0,62,0.00,,,0.00,Wunderground v.1.15,2013-06-23 16:36:00,
2013-06-23 12:42:00,84.8,69.9,30.11,WSW,256,4.0,8.0,61,0.00,,,0.00,Wunderground v.1.15,2013-06-23 16:42:00,
2013-06-23 12:47:00,84.6,70.1,30.11,WSW,240,4.0,8.0,62,0.00,,,0.00,Wunderground v.1.15,2013-06-23 16:47:00,
2013-06-23 12:53:00,84.4,70.0,30.11,WSW,250,4.0,8.0,62,0.00,,,0.00,Wunderground v.1.15,2013-06-23 16:53:00,
2013-06-23 12:57:00,84.6,69.7,30.11,SW,226,4.0,10.0,61,0.00,,,0.00,Wunderground v.1.15,2013-06-23 16:57:00,
2013-06-23 12:58:00,84.6,69.2,30.11,SSW,210,4.0,10.0,60,0.00,,,0.00,Wunderground v.1.15,2013-06-23 16:58:00,
2013-06-23 12:59:00,84.5,69.1,30.11,West,276,4.0,10.0,60,0.00,,,0.00,Wunderground v.1.15,2013-06-23 16:59:00,
2013-06-23 13:04:00,84.1,69.7,30.11,SSW,210,5.0,8.0,62,0.00,,,0.00,Wunderground v.1.15,2013-06-23 17:04:00,
2013-06-23 13:07:00,84.1,71.1,30.11,WNW,282,5.0,8.0,65,0.00,,,0.00,Wunderground v.1.15,2013-06-23 17:07:00,
2013-06-23 13:09:00,84.0,70.0,30.10,SW,236,5.0,8.0,63,0.00,,,0.00,Wunderground v.1.15,2013-06-23 17:09:00,
2013-06-23 13:14:00,84.2,70.2,30.10,WNW,302,4.0,8.0,63,0.00,,,0.00,Wunderground v.1.15,2013-06-23 17:14:00,
2013-06-23 13:19:00,84.3,69.9,30.10,SSW,205,4.0,8.0,62,0.00,,,0.00,Wunderground v.1.15,2013-06-23 17:19:00,
2013-06-23 13:24:00,84.4,70.0,30.10,SSW,210,5.0,11.0,62,0.00,,,0.00,Wunderground v.1.15,2013-06-23 17:24:00,
2013-06-23 13:30:00,84.5,71.4,30.10,South,179,4.0,4.0,65,0.00,,,0.00,Wunderground v.1.15,2013-06-23 17:30:00,
2013-06-23 13:36:00,85.1,71.5,30.10,West,267,2.0,8.0,64,0.00,,,0.00,Wunderground v.1.15,2013-06-23 17:36:00,
2013-06-23 13:41:00,85.0,70.5,30.10,SW,215,3.0,8.0,62,0.00,,,0.00,Wunderground v.1.15,2013-06-23 17:41:00,
2013-06-23 13:47:00,84.3,70.3,30.10,SSW,196,6.0,9.0,63,0.00,,,0.00,Wunderground v.1.15,2013-06-23 17:47:00,
2013-06-23 13:53:00,84.4,70.9,30.09,WSW,253,5.0,9.0,64,0.00,,,0.00,Wunderground v.1.15,2013-06-23 17:53:00,
2013-06-23 13:59:00,84.8,72.2,30.09,West,263,4.0,9.0,66,0.00,,,0.00,Wunderground v.1.15,2013-06-23 17:59:00,
2013-06-23 14:04:00,84.7,70.2,30.09,West,265,4.0,8.0,62,0.00,,,0.00,Wunderground v.1.15,2013-06-23 18:04:00,
2013-06-23 14:09:00,84.4,70.0,30.09,SW,233,6.0,10.0,62,0.00,,,0.00,Wunderground v.1.15,2013-06-23 18:09:00,
2013-06-23 14:15:00,84.6,70.6,30.09,WNW,283,5.0,8.0,63,0.00,,,0.00,Wunderground v.1.15,2013-06-23 18:15:00,
2013-06-23 14:20:00,84.2,69.8,30.09,West,267,5.0,8.0,62,0.00,,,0.00,Wunderground v.1.15,2013-06-23 18:20:00,
2013-06-23 14:26:00,84.0,69.6,30.09,South,187,6.0,9.0,62,0.00,,,0.00,Wunderground v.1.15,2013-06-23 18:26:00,
2013-06-23 14:31:00,84.0,69.6,30.09,SW,229,6.0,8.0,62,0.00,,,0.00,Wunderground v.1.15,2013-06-23 18:31:00,
2013-06-23 14:37:00,84.5,70.0,30.08,West,278,5.0,8.0,62,0.00,,,0.00,Wunderground v.1.15,2013-06-23 18:37:00,
2013-06-23 14:42:00,84.5,69.6,30.08,SW,225,4.0,9.0,61,0.00,,,0.00,Wunderground v.1.15,2013-06-23 18:42:00,
2013-06-23 14:48:00,84.0,69.1,30.08,SSW,212,6.0,10.0,61,0.00,,,0.00,Wunderground v.1.15,2013-06-23 18:48:00,
2013-06-23 14:53:00,84.0,70.5,30.08,SSW,203,6.0,8.0,64,0.00,,,0.00,Wunderground v.1.15,2013-06-23 18:53:00,
2013-06-23 14:59:00,84.3,70.8,30.08,SW,232,5.0,8.0,64,0.00,,,0.00,Wunderground v.1.15,2013-06-23 18:59:00,
2013-06-23 15:04:00,84.1,69.7,30.08,West,281,6.0,10.0,62,0.00,,,0.00,Wunderground v.1.15,2013-06-23 19:04:00,
2013-06-23 15:09:00,84.1,70.6,30.08,WSW,249,6.0,10.0,64,0.00,,,0.00,Wunderground v.1.15,2013-06-23 19:09:00,
2013-06-23 15:15:00,83.9,70.4,30.08,West,270,5.0,12.0,64,0.00,,,0.00,Wunderground v.1.15,2013-06-23 19:15:00,
2013-06-23 15:21:00,83.8,70.8,30.08,SW,217,6.0,8.0,65,0.00,,,0.00,Wunderground v.1.15,2013-06-23 19:21:00,
2013-06-23 15:26:00,83.8,71.2,30.08,SW,224,5.0,8.0,66,0.00,,,0.00,Wunderground v.1.15,2013-06-23 19:26:00,
2013-06-23 15:32:00,83.6,70.6,30.07,WSW,257,4.0,8.0,65,0.00,,,0.00,Wunderground v.1.15,2013-06-23 19:32:00,
2013-06-23 15:37:00,83.4,69.9,30.07,WSW,252,5.0,13.0,64,0.00,,,0.00,Wunderground v.1.15,2013-06-23 19:37:00,
2013-06-23 15:42:00,83.0,70.0,30.07,WSW,239,7.0,10.0,65,0.00,,,0.00,Wunderground v.1.15,2013-06-23 19:42:00,
2013-06-23 15:47:00,82.6,69.2,30.07,SSW,212,7.0,10.0,64,0.00,,,0.00,Wunderground v.1.15,2013-06-23 19:47:00,
2013-06-23 15:53:00,82.4,69.9,30.07,WSW,248,7.0,8.0,66,0.00,,,0.00,Wunderground v.1.15,2013-06-23 19:53:00,
2013-06-23 15:58:00,82.4,70.8,30.07,West,267,6.0,9.0,68,0.00,,,0.00,Wunderground v.1.15,2013-06-23 19:58:00,
2013-06-23 16:04:00,82.3,69.8,30.07,WSW,256,5.0,11.0,66,0.00,,,0.00,Wunderground v.1.15,2013-06-23 20:04:00,
2013-06-23 16:09:00,82.0,69.5,30.07,SW,221,5.0,11.0,66,0.00,,,0.00,Wunderground v.1.15,2013-06-23 20:09:00,
2013-06-23 16:15:00,81.7,69.7,30.07,SW,225,5.0,12.0,67,0.00,,,0.00,Wunderground v.1.15,2013-06-23 20:15:00,
2013-06-23 16:21:00,81.7,70.1,30.07,SW,225,5.0,8.0,68,0.00,,,0.00,Wunderground v.1.15,2013-06-23 20:21:00,
2013-06-23 16:26:00,81.7,69.7,30.07,SW,232,5.0,9.0,67,0.00,,,0.00,Wunderground v.1.15,2013-06-23 20:26:00,
2013-06-23 16:32:00,81.9,70.3,30.07,SW,215,5.0,8.0,68,0.00,,,0.00,Wunderground v.1.15,2013-06-23 20:32:00,
2013-06-23 16:38:00,81.9,70.3,30.06,West,274,4.0,8.0,68,0.00,,,0.00,Wunderground v.1.15,2013-06-23 20:38:00,
2013-06-23 16:44:00,81.7,70.5,30.06,SSW,212,5.0,8.0,69,0.00,,,0.00,Wunderground v.1.15,2013-06-23 20:44:00,
2013-06-23 16:49:00,81.9,71.6,30.06,West,274,5.0,8.0,71,0.00,,,0.00,Wunderground v.1.15,2013-06-23 20:49:00,
2013-06-23 16:55:00,81.6,70.4,30.06,SW,217,5.0,9.0,69,0.00,,,0.00,Wunderground v.1.15,2013-06-23 20:55:00,
2013-06-23 17:01:00,81.6,70.9,30.06,WSW,245,6.0,7.0,70,0.00,,,0.00,Wunderground v.1.15,2013-06-23 21:01:00,
2013-06-23 17:07:00,81.6,71.3,30.06,SW,228,4.0,8.0,71,0.00,,,0.00,Wunderground v.1.15,2013-06-23 21:07:00,
2013-06-23 17:12:00,81.7,71.4,30.06,SSW,203,4.0,8.0,71,0.00,,,0.00,Wunderground v.1.15,2013-06-23 21:12:00,
2013-06-23 17:17:00,81.7,70.5,30.06,SSW,202,5.0,9.0,69,0.00,,,0.00,Wunderground v.1.15,2013-06-23 21:17:00,
2013-06-23 17:22:00,81.6,71.3,30.06,West,264,6.0,8.0,71,0.00,,,0.00,Wunderground v.1.15,2013-06-23 21:22:00,
2013-06-23 17:27:00,81.9,70.7,30.06,SW,215,4.0,8.0,69,0.00,,,0.00,Wunderground v.1.15,2013-06-23 21:27:00,
2013-06-23 17:33:00,81.6,70.9,30.06,SW,217,4.0,12.0,70,0.00,,,0.00,Wunderground v.1.15,2013-06-23 21:33:00,
2013-06-23 17:38:00,81.4,71.1,30.05,WSW,239,4.0,12.0,71,0.00,,,0.00,Wunderground v.1.15,2013-06-23 21:38:00,
2013-06-23 17:44:00,81.0,70.7,30.05,South,179,4.0,10.0,71,0.00,,,0.00,Wunderground v.1.15,2013-06-23 21:44:00,
2013-06-23 17:49:00,80.8,70.5,30.05,SW,217,4.0,10.0,71,0.00,,,0.00,Wunderground v.1.15,2013-06-23 21:49:00,
2013-06-23 17:54:00,80.6,70.7,30.05,SW,229,4.0,8.0,72,0.00,,,0.00,Wunderground v.1.15,2013-06-23 21:54:00,
2013-06-23 18:00:00,80.8,71.3,30.05,West,280,4.0,4.0,73,0.00,,,0.00,Wunderground v.1.15,2013-06-23 22:00:00,
2013-06-23 18:06:00,80.8,70.9,30.05,SW,216,4.0,8.0,72,0.00,,,0.00,Wunderground v.1.15,2013-06-23 22:06:00,
2013-06-23 18:12:00,81.0,71.1,30.05,West,260,4.0,8.0,72,0.00,,,0.00,Wunderground v.1.15,2013-06-23 22:12:00,
2013-06-23 18:17:00,80.8,71.3,30.05,West,272,4.0,8.0,73,0.00,,,0.00,Wunderground v.1.15,2013-06-23 22:17:00,
2013-06-23 18:23:00,80.6,71.1,30.05,SSW,210,5.0,8.0,73,0.00,,,0.00,Wunderground v.1.15,2013-06-23 22:23:00,
2013-06-23 18:28:00,80.6,71.5,30.05,West,280,3.0,8.0,74,0.00,,,0.00,Wunderground v.1.15,2013-06-23 22:28:00,
2013-06-23 18:34:00,80.1,71.1,30.04,South,180,4.0,10.0,74,0.00,,,0.00,Wunderground v.1.15,2013-06-23 22:34:00,
2013-06-23 18:39:00,79.7,71.5,30.05,South,186,4.0,10.0,76,0.00,,,0.00,Wunderground v.1.15,2013-06-23 22:39:00,
2013-06-23 18:44:00,79.3,71.1,30.05,WNW,283,3.0,8.0,76,0.00,,,0.00,Wunderground v.1.15,2013-06-23 22:44:00,
2013-06-23 18:50:00,78.9,71.5,30.05,West,271,3.0,3.0,78,0.00,,,0.00,Wunderground v.1.15,2013-06-23 22:50:00,
2013-06-23 18:56:00,78.6,71.2,30.05,SSW,203,4.0,8.0,78,0.00,,,0.00,Wunderground v.1.15,2013-06-23 22:56:00,
2013-06-23 19:01:00,78.3,71.2,30.05,West,273,4.0,8.0,79,0.00,,,0.00,Wunderground v.1.15,2013-06-23 23:01:00,
2013-06-23 19:06:00,78.0,71.3,30.05,SW,233,4.0,8.0,80,0.00,,,0.00,Wunderground v.1.15,2013-06-23 23:06:00,
2013-06-23 19:11:00,77.8,71.1,30.05,SSW,198,3.0,8.0,80,0.00,,,0.00,Wunderground v.1.15,2013-06-23 23:11:00,
2013-06-23 19:17:00,77.5,70.8,30.05,SW,221,4.0,8.0,80,0.00,,,0.00,Wunderground v.1.15,2013-06-23 23:17:00,
2013-06-23 19:22:00,77.1,70.8,30.05,SSW,200,4.0,8.0,81,0.00,,,0.00,Wunderground v.1.15,2013-06-23 23:22:00,
2013-06-23 19:28:00,76.8,70.5,30.05,SW,224,3.0,8.0,81,0.00,,,0.00,Wunderground v.1.15,2013-06-23 23:28:00,
2013-06-23 19:33:00,76.5,70.6,30.05,WSW,250,3.0,8.0,82,0.00,,,0.00,Wunderground v.1.15,2013-06-23 23:33:00,
2013-06-23 19:38:00,76.3,70.4,30.05,SSW,193,4.0,9.0,82,0.00,,,0.00,Wunderground v.1.15,2013-06-23 23:38:00,
2013-06-23 19:43:00,76.1,70.6,30.05,WSW,239,3.0,8.0,83,0.00,,,0.00,Wunderground v.1.15,2013-06-23 23:43:00,
2013-06-23 19:49:00,75.9,70.7,30.05,SW,232,3.0,8.0,84,0.00,,,0.00,Wunderground v.1.15,2013-06-23 23:49:00,
2013-06-23 19:54:00,75.7,70.5,30.05,SSW,211,3.0,8.0,84,0.00,,,0.00,Wunderground v.1.15,2013-06-23 23:54:00,
2013-06-23 19:59:00,75.5,70.7,30.05,SSW,208,2.0,8.0,85,0.00,,,0.00,Wunderground v.1.15,2013-06-23 23:59:00,
2013-06-23 20:05:00,75.2,70.7,30.05,SW,222,2.0,8.0,86,0.00,,,0.00,Wunderground v.1.15,2013-06-24 00:05:00,
2013-06-23 20:11:00,75.0,70.9,30.06,WSW,252,3.0,10.0,87,0.00,,,0.00,Wunderground v.1.15,2013-06-24 00:11:00,
2013-06-23 20:16:00,74.8,70.7,30.06,SSW,198,3.0,10.0,87,0.00,,,0.00,Wunderground v.1.15,2013-06-24 00:16:00,
2013-06-23 20:21:00,74.6,70.8,30.05,WSW,250,3.0,8.0,88,0.00,,,0.00,Wunderground v.1.15,2013-06-24 00:21:00,
2013-06-23 20:27:00,74.4,70.6,30.05,SSW,211,3.0,8.0,88,0.00,,,0.00,Wunderground v.1.15,2013-06-24 00:27:00,
2013-06-23 20:32:00,74.1,70.6,30.05,South,187,3.0,8.0,89,0.00,,,0.00,Wunderground v.1.15,2013-06-24 00:32:00,
2013-06-23 20:38:00,73.9,70.5,30.05,SSW,197,3.0,8.0,89,0.00,,,0.00,Wunderground v.1.15,2013-06-24 00:38:00,
2013-06-23 20:43:00,73.8,70.7,30.05,SSW,213,3.0,8.0,90,0.00,,,0.00,Wunderground v.1.15,2013-06-24 00:43:00,
2013-06-23 20:48:00,73.6,70.5,30.05,SSW,203,3.0,8.0,90,0.00,,,0.00,Wunderground v.1.15,2013-06-24 00:48:00,
2013-06-23 20:54:00,73.4,70.3,30.05,WSW,243,2.0,8.0,90,0.00,,,0.00,Wunderground v.1.15,2013-06-24 00:54:00,
2013-06-23 21:00:00,73.1,70.3,30.06,West,259,2.0,8.0,91,0.00,,,0.00,Wunderground v.1.15,2013-06-24 01:00:00,
2013-06-23 21:05:00,73.0,70.2,30.06,WSW,255,2.0,8.0,91,0.00,,,0.00,Wunderground v.1.15,2013-06-24 01:05:00,
2013-06-23 21:10:00,72.8,70.0,30.06,West,260,2.0,8.0,91,0.00,,,0.00,Wunderground v.1.15,2013-06-24 01:10:00,
2013-06-23 21:16:00,72.6,69.8,30.07,SSW,195,1.0,8.0,91,0.00,,,0.00,Wunderground v.1.15,2013-06-24 01:16:00,
2013-06-23 21:21:00,72.4,69.9,30.07,SW,222,1.0,8.0,92,0.00,,,0.00,Wunderground v.1.15,2013-06-24 01:21:00,
2013-06-23 21:27:00,72.2,69.7,30.07,SW,221,1.0,8.0,92,0.00,,,0.00,Wunderground v.1.15,2013-06-24 01:27:00,
2013-06-23 21:32:00,72.2,69.7,30.07,SW,226,3.0,8.0,92,0.00,,,0.00,Wunderground v.1.15,2013-06-24 01:32:00,
2013-06-23 21:37:00,72.2,69.7,30.07,WSW,238,3.0,8.0,92,0.00,,,0.00,Wunderground v.1.15,2013-06-24 01:37:00,
2013-06-23 21:43:00,72.1,69.6,30.08,WSW,255,2.0,8.0,92,0.00,,,0.00,Wunderground v.1.15,2013-06-24 01:43:00,
2013-06-23 21:49:00,72.0,69.5,30.08,SW,221,2.0,8.0,92,0.00,,,0.00,Wunderground v.1.15,2013-06-24 01:49:00,
2013-06-23 21:54:00,71.9,69.4,30.08,WSW,255,1.0,8.0,92,0.00,,,0.00,Wunderground v.1.15,2013-06-24 01:54:00,
2013-06-23 21:59:00,71.9,69.8,30.08,South,179,1.0,8.0,93,0.00,,,0.00,Wunderground v.1.15,2013-06-24 01:59:00,
2013-06-23 22:04:00,71.8,69.3,30.08,SSW,207,2.0,8.0,92,0.00,,,0.00,Wunderground v.1.15,2013-06-24 02:04:00,
2013-06-23 22:09:00,71.6,69.5,30.08,SW,221,1.0,8.0,93,0.00,,,0.00,Wunderground v.1.15,2013-06-24 02:09:00,
2013-06-23 22:14:00,71.6,69.5,30.08,SW,224,1.0,8.0,93,0.00,,,0.00,Wunderground v.1.15,2013-06-24 02:14:00,
2013-06-23 22:20:00,71.4,69.3,30.08,SW,232,2.0,2.0,93,0.00,,,0.00,Wunderground v.1.15,2013-06-24 02:20:00,
2013-06-23 22:26:00,71.3,69.2,30.08,SW,219,1.0,8.0,93,0.00,,,0.00,Wunderground v.1.15,2013-06-24 02:26:00,
2013-06-23 22:31:00,71.2,69.1,30.08,SW,222,0.0,8.0,93,0.00,,,0.00,Wunderground v.1.15,2013-06-24 02:31:00,
2013-06-23 22:36:00,71.1,69.3,30.08,SSW,208,0.0,8.0,94,0.00,,,0.00,Wunderground v.1.15,2013-06-24 02:36:00,
2013-06-23 22:42:00,70.9,69.1,30.08,SSW,208,0.0,8.0,94,0.00,,,0.00,Wunderground v.1.15,2013-06-24 02:42:00,
2013-06-23 22:47:00,70.7,68.9,30.08,SSW,208,0.0,8.0,94,0.00,,,0.00,Wunderground v.1.15,2013-06-24 02:47:00,
2013-06-23 22:52:00,70.6,68.8,30.08,SSW,195,0.0,8.0,94,0.00,,,0.00,Wunderground v.1.15,2013-06-24 02:52:00,
2013-06-23 22:58:00,70.7,69.2,30.08,SSW,201,1.0,8.0,95,0.00,,,0.00,Wunderground v.1.15,2013-06-24 02:58:00,
2013-06-23 23:04:00,70.8,69.3,30.07,WNW,288,2.0,8.0,95,0.00,,,0.00,Wunderground v.1.15,2013-06-24 03:04:00,
2013-06-23 23:10:00,71.0,69.5,30.07,SW,226,2.0,2.0,95,0.00,,,0.00,Wunderground v.1.15,2013-06-24 03:10:00,
2013-06-23 23:16:00,71.2,69.7,30.07,WSW,243,2.0,5.0,95,0.00,,,0.00,Wunderground v.1.15,2013-06-24 03:16:00,
2013-06-23 23:22:00,71.3,69.8,30.06,SSW,204,2.0,5.0,95,0.00,,,0.00,Wunderground v.1.15,2013-06-24 03:22:00,
2013-06-23 23:27:00,71.4,69.6,30.06,SW,226,2.0,5.0,94,0.00,,,0.00,Wunderground v.1.15,2013-06-24 03:27:00,
2013-06-23 23:32:00,71.5,69.7,30.06,SW,219,3.0,3.0,94,0.00,,,0.00,Wunderground v.1.15,2013-06-24 03:32:00,
2013-06-23 23:38:00,71.6,69.8,30.05,SSW,212,2.0,4.0,94,0.00,,,0.00,Wunderground v.1.15,2013-06-24 03:38:00,
2013-06-23 23:44:00,71.6,69.8,30.05,WSW,249,3.0,8.0,94,0.00,,,0.00,Wunderground v.1.15,2013-06-24 03:44:00,
2013-06-23 23:49:00,71.6,69.8,30.05,SW,219,2.0,8.0,94,0.00,,,0.00,Wunderground v.1.15,2013-06-24 03:49:00,
2013-06-23 23:54:00,71.5,69.7,30.05,WSW,257,2.0,2.0,94,0.00,,,0.00,Wunderground v.1.15,2013-06-24 03:54:00,